Theta_e
340 341 344 349 349 349 349 349 348 348 348 349 349 348 348 347 347 345 345 344 343 343 343 341 341 341 341 342 344 344 346 345 347 346 345 345 345 345 344 343 342 342 342 341 342 341 340 346 345 344 343 344 344 344 343 344 344 341 339 336 334 334 334 334 333 333 333 334 335 337 337 338 337 336 337 336 336 336 336 335 336 332 331 333 335
339 342 344 347 350 350 349 348 348 348 348 349 348 349 348 347 347 346 345 344 344 344 343 342 342 342 342 342 341 341 344 346 346 346 346 345 343 341 341 340 340 340 340 340 340 340 340 339 341 345 343 343 342 342 342 341 341 340 339 338 337 339 339 340 339 339 339 339 339 338 337 337 337 336 337 336 335 335 336 333 334 328 327 334 334
341 342 344 346 350 350 348 348 348 347 348 348 348 348 348 347 346 346 345 344 344 344 342 342 343 342 342 341 341 340 342 346 345 345 344 342 341 340 340 339 338 337 338 338 337 338 338 339 338 337 338 340 340 339 339 339 339 339 340 338 338 338 338 339 339 339 338 339 338 338 338 338 337 337 337 336 336 335 337 334 334 333 327 331 331
341 342 344 347 349 349 349 348 347 347 347 348 348 347 347 347 347 346 346 345 344 343 343 343 343 341 340 340 339 339 339 339 340 341 341 340 340 339 338 337 337 338 338 338 338 339 338 338 337 337 337 337 337 337 338 338 338 337 339 340 340 341 341 340 337 337 336 336 335 334 330 325 331 334 335 335 336 335 338 334 334 333 333 332 332
341 343 344 346 346 348 348 347 346 347 347 348 347 347 347 347 346 346 346 345 345 344 343 343 343 340 339 340 340 339 338 337 336 336 336 338 338 336 335 336 337 339 338 339 339 337 335 334 335 334 334 335 335 335 335 336 336 337 337 338 339 339 339 338 338 338 338 336 335 333 324 326 326 332 333 334 333 333 334 331 331 330 330 330 330
342 343 344 345 344 346 348 347 346 346 346 347 348 347 347 346 346 345 345 346 345 344 343 343 342 341 341 341 341 339 338 337 335 335 336 336 336 335 336 336 335 336 338 337 336 335 333 333 332 333 333 333 334 333 334 334 336 336 336 336 336 336 335 336 337 335 337 334 337 324 322 323 326 329 332 332 332 335 331 331 331 332 332 332 331
342 343 344 344 343 345 347 347 346 345 345 345 348 347 347 346 346 345 345 345 345 344 343 343 343 342 341 341 340 339 338 338 337 336 335 334 335 336 336 337 337 337 336 335 336 335 335 335 335 334 333 333 333 332 332 332 334 334 334 334 334 334 334 334 334 334 336 330 323 322 323 325 326 325 331 332 330 330 327 328 329 329 330 329 326
342 343 343 343 343 345 346 346 346 344 345 345 345 346 346 346 345 345 345 345 345 345 344 343 343 342 341 340 339 339 338 337 337 337 338 338 338 337 337 336 335 335 335 335 335 335 335 335 334 333 333 333 333 333 332 332 332 333 332 333 334 334 334 333 334 334 332 322 324 323 322 324 325 323 332 329 329 335 333 330 329 331 331 330 326
341 342 342 341 341 344 344 345 346 344 345 345 344 345 345 347 345 345 344 344 345 344 345 344 343 342 341 340 340 339 338 339 338 339 338 337 336 336 336 335 335 336 335 335 336 336 334 334 334 334 333 332 332 332 332 331 331 331 331 333 333 333 332 333 334 332 325 322 323 324 324 325 325 323 331 331 332 333 335 336 335 332 332 328 327
340 340 340 339 339 342 342 344 345 344 346 344 343 343 345 345 344 345 344 344 344 344 343 344 342 342 341 340 340 339 338 339 339 338 338 338 336 335 335 335 335 335 335 335 335 335 335 334 334 334 333 334 332 331 331 331 331 330 331 331 332 331 332 334 332 327 321 320 323 323 324 332 325 326 330 332 333 334 335 336 336 331 333 331 329
338 338 338 338 338 341 342 344 345 346 345 343 343 342 342 344 343 343 344 345 344 344 343 344 343 342 342 341 341 340 341 340 338 339 339 339 337 337 337 337 336 335 336 335 335 334 335 334 334 334 333 334 334 331 331 330 330 329 330 330 331 332 335 333 329 320 320 320 323 323 332 335 322 322 338 333 333 332 334 333 333 333 332 332 331
336 337 337 338 342 340 341 342 344 346 345 343 342 341 341 341 342 341 344 345 345 344 343 343 343 343 343 342 341 341 341 340 338 339 339 339 338 338 337 337 337 337 334 333 335 335 333 335 334 334 335 334 334 333 331 331 330 329 331 331 333 334 335 332 323 318 318 317 317 325 327 328 324 329 336 334 335 335 332 333 334 334 334 334 333
335 336 336 337 338 339 340 341 342 344 344 343 341 341 341 340 340 340 341 344 344 344 343 343 344 343 343 342 342 341 341 340 339 339 339 338 337 337 337 337 336 336 334 335 334 335 335 334 335 333 333 334 335 335 333 331 330 331 331 332 335 335 334 332 320 317 317 315 318 321 322 323 324 338 337 336 336 336 336 336 334 334 334 334 334
333 334 335 337 337 342 339 340 341 341 342 342 343 343 341 340 340 340 341 343 344 344 344 342 343 343 343 342 341 341 341 340 339 339 339 339 338 337 337 336 336 336 336 336 335 334 334 334 333 334 333 333 334 335 335 334 333 332 332 335 336 335 334 329 327 317 317 317 319 320 317 323 322 338 336 336 336 337 336 336 334 334 335 334 334
333 333 334 336 337 338 342 338 339 339 341 341 342 343 341 340 340 340 341 342 344 344 344 343 343 342 343 343 343 342 341 341 340 340 340 340 338 336 336 336 336 336 336 335 334 335 334 335 334 333 333 333 333 333 334 335 335 334 335 335 335 335 332 324 322 317 318 321 319 320 317 320 335 336 337 336 336 336 335 335 335 334 334 334 334
334 333 334 334 336 336 338 341 337 337 337 339 340 341 342 340 340 340 341 341 343 344 344 344 343 343 343 343 343 342 342 341 341 341 340 340 338 337 337 336 336 335 335 335 334 334 334 334 333 333 333 332 332 332 332 333 334 334 334 335 335 334 331 328 318 316 316 318 318 321 318 318 336 335 336 336 335 335 333 333 334 334 334 334 335
334 334 333 334 334 335 335 337 336 336 335 337 338 339 341 341 341 341 341 341 342 344 344 343 342 343 342 343 343 343 341 341 341 341 340 340 339 339 339 336 337 336 335 334 334 334 334 333 334 334 333 332 332 332 331 332 332 332 333 333 333 331 329 327 318 315 314 317 319 321 319 318 328 336 335 335 335 336 334 333 334 334 332 333 335
333 333 333 334 334 333 334 333 334 333 334 336 336 337 339 341 340 341 342 342 343 344 343 343 341 341 341 342 342 343 342 342 341 340 339 339 339 337 337 338 337 336 336 335 334 333 333 334 334 334 334 334 333 333 333 332 332 333 333 332 331 329 327 326 315 314 314 320 318 320 320 326 331 333 334 335 336 336 336 334 334 335 335 335 336
333 333 333 333 333 333 333 332 331 331 332 336 337 337 337 339 339 340 340 341 342 342 342 341 340 340 339 339 341 342 341 341 340 338 337 338 337 335 334 337 337 336 336 336 335 335 334 333 333 334 335 334 334 334 334 334 334 334 333 331 329 326 325 322 314 313 314 315 316 316 317 326 332 334 335 335 335 336 337 336 335 335 335 335 336
332 332 332 333 333 332 332 332 331 330 330 335 338 337 335 335 336 338 338 338 339 339 338 337 337 337 336 337 338 340 339 339 339 337 335 335 337 332 332 335 338 337 337 336 335 335 335 335 333 333 334 335 334 333 334 335 335 334 332 330 328 326 319 314 312 314 315 315 320 318 323 329 333 334 335 335 335 337 337 336 336 335 335 335 335
331 331 331 332 332 332 331 331 331 330 329 332 336 338 336 333 334 334 334 334 336 335 333 331 330 331 332 332 336 340 340 339 337 334 334 333 330 328 329 333 336 338 337 336 335 335 335 335 335 335 334 333 334 335 334 333 333 333 331 329 327 323 318 314 315 316 317 317 319 317 324 328 332 335 335 335 336 337 337 336 336 335 335 335 334
329 329 330 331 331 331 331 331 331 330 330 330 334 337 337 334 336 337 338 333 333 333 332 335 338 338 330 334 339 339 340 339 339 338 332 332 330 327 328 330 334 336 337 338 337 337 336 335 335 335 335 334 334 329 327 330 331 331 329 327 325 321 319 319 320 319 318 318 319 320 327 329 333 334 335 336 337 337 336 336 336 335 335 335 335
327 328 328 330 331 331 331 331 330 331 330 329 332 335 337 336 335 336 337 333 335 334 336 336 338 337 336 336 337 338 339 339 337 335 333 327 331 327 327 329 331 333 335 337 336 336 337 336 336 336 335 334 330 323 321 323 322 328 327 325 323 324 325 324 323 321 320 319 319 324 327 330 333 333 336 336 336 337 336 336 335 335 335 335 335
327 327 328 330 330 330 331 331 330 330 329 329 330 332 335 336 334 335 337 337 336 334 336 336 335 336 334 335 336 337 335 336 338 338 339 333 329 326 326 327 329 330 331 334 334 334 335 335 335 334 334 331 326 323 323 321 322 322 323 325 327 327 326 325 323 322 321 320 319 324 327 330 332 332 334 335 336 336 335 336 336 336 336 335 335
326 326 327 328 328 329 331 331 331 330 329 329 329 330 332 335 334 334 335 335 335 335 335 334 335 334 334 334 335 335 334 334 335 336 335 333 331 329 328 329 330 329 328 328 328 328 331 327 327 329 326 326 324 325 324 324 323 323 325 326 327 327 326 325 324 322 321 319 319 323 326 328 332 334 335 334 335 334 333 334 335 335 334 334 334
325 325 325 327 328 329 330 331 331 330 329 328 328 329 331 333 333 333 333 333 333 334 334 333 333 333 334 334 333 333 333 333 333 335 337 337 335 333 331 330 329 329 327 327 326 326 326 326 327 326 326 325 325 325 325 324 324 323 325 326 326 326 326 325 324 323 322 320 319 323 325 326 329 332 334 334 334 335 335 335 334 334 334 335 335
324 325 325 326 327 328 330 331 330 330 329 329 329 328 329 331 332 332 331 330 332 332 332 332 331 330 332 332 332 331 331 331 331 332 334 336 336 335 333 331 330 329 329 328 327 327 327 327 328 327 326 325 325 325 325 324 324 324 323 323 325 326 325 325 324 323 322 320 320 322 324 327 330 332 333 334 335 335 335 336 334 334 334 334 335
323 325 325 326 326 327 329 329 330 330 329 329 329 329 329 329 330 329 330 329 330 330 331 331 329 328 329 330 330 331 330 328 328 330 332 334 335 335 334 332 331 331 331 330 329 329 328 328 327 327 327 326 325 325 325 324 324 324 323 322 323 324 324 324 323 321 319 318 318 319 322 325 328 330 332 333 335 335 335 335 335 335 335 336 336
323 324 325 325 326 327 327 328 329 330 330 330 329 329 329 329 328 328 328 327 328 329 329 329 328 328 328 328 328 329 329 328 327 328 330 332 334 333 333 332 331 331 332 330 330 329 329 329 328 328 327 326 326 326 325 325 324 323 322 322 321 321 321 321 320 319 318 319 319 319 321 323 326 329 331 333 334 334 334 334 334 334 334 334 334
324 325 325 326 327 328 327 327 328 330 330 330 329 328 328 328 327 327 327 325 327 327 327 327 327 327 327 327 328 329 329 328 327 327 328 330 330 331 332 332 331 331 331 330 330 330 329 328 328 328 327 325 324 325 324 324 324 323 322 322 321 320 320 319 319 319 319 319 320 319 320 321 323 326 329 331 332 333 333 333 333 333 333 334 334
325 324 325 326 326 327 328 328 327 327 330 329 329 329 328 328 327 326 326 326 326 326 326 326 326 326 326 326 327 327 327 326 326 326 326 327 327 327 328 330 330 330 331 330 330 330 329 328 326 326 325 324 324 324 323 323 322 321 320 319 320 319 319 319 319 319 319 320 320 320 320 320 321 324 327 330 332 334 334 334 333 333 333 334 335
325 325 325 326 326 327 328 328 328 327 328 329 328 328 328 328 327 326 326 325 325 325 325 325 325 326 325 325 326 326 325 326 325 324 325 324 324 324 325 326 327 328 328 328 327 327 327 327 325 325 324 323 323 321 320 320 320 320 319 318 319 319 318 319 319 319 320 320 320 320 320 321 321 322 324 327 330 331 333 333 334 333 334 334 335
326 326 326 326 326 327 328 328 328 327 327 329 329 329 328 328 327 326 326 325 324 324 325 325 325 325 325 325 325 325 325 325 324 324 323 323 323 323 323 323 324 325 325 325 325 325 324 324 323 322 321 320 319 319 318 318 318 318 318 318 318 318 318 317 318 318 319 319 320 320 320 320 320 320 321 322 324 327 330 333 333 333 334 334 335
326 326 326 326 327 328 328 329 328 328 327 328 329 328 327 327 327 327 325 325 324 323 323 324 324 324 324 324 324 324 325 325 324 323 322 322 322 322 322 322 322 322 323 322 323 322 322 321 321 319 319 319 319 319 317 318 318 317 317 317 317 317 317 317 317 317 318 318 319 319 320 320 319 319 319 320 321 323 327 330 331 332 333 334 334
326 326 326 327 327 328 328 329 328 328 327 327 327 328 327 326 326 326 325 325 325 324 324 323 323 324 324 323 323 323 323 324 324 323 322 322 322 322 322 323 322 321 321 321 321 321 321 321 319 319 318 318 318 318 317 318 318 318 318 317 318 318 317 318 318 318 318 318 318 319 319 319 319 319 319 319 320 321 323 326 329 331 333 332 333
326 327 327 327 327 328 327 328 327 327 327 327 328 328 327 327 325 325 325 324 324 324 324 324 324 323 323 323 323 323 322 323 324 324 323 322 322 322 323 321 321 321 321 320 320 320 319 320 319 319 318 318 317 318 317 318 318 318 318 318 319 318 319 319 319 319 319 319 319 319 319 318 318 318 317 318 318 319 322 324 327 330 331 331 332
327 327 327 327 327 327 326 327 327 327 327 327 327 327 327 327 326 325 325 324 325 325 325 324 323 323 323 324 323 323 323 324 324 324 323 323 322 322 321 321 320 320 320 320 320 320 319 320 319 318 319 320 318 318 318 318 318 319 319 319 319 319 319 319 319 319 320 319 319 319 318 318 318 314 317 318 318 318 319 320 323 327 328 328 329
327 327 328 327 327 327 327 327 328 327 328 328 327 327 327 327 326 326 324 325 325 325 325 324 324 324 324 324 324 323 323 324 324 324 324 324 323 323 322 320 320 319 320 320 321 320 320 320 320 319 319 319 319 319 319 318 317 318 318 319 319 318 319 319 319 316 317 318 318 318 319 319 318 318 318 318 318 319 319 319 321 321 322 321 323
327 326 327 328 328 327 327 326 326 327 327 327 326 326 326 326 325 325 324 325 325 325 325 324 325 325 325 325 324 324 323 324 324 324 324 323 322 322 322 320 320 319 319 320 320 319 319 319 319 320 318 319 320 320 319 318 318 317 318 318 318 317 318 318 317 317 318 318 318 318 318 318 317 317 318 318 318 318 319 319 318 318 319 319 320
327 327 326 327 327 327 327 327 326 327 327 326 326 325 324 324 324 322 322 324 325 324 324 325 325 325 325 325 325 325 324 324 324 324 324 323 323 323 322 320 320 320 319 319 319 319 319 318 318 319 319 318 317 318 316 315 315 315 315 316 316 316 316 316 317 317 317 317 318 317 317 317 317 317 317 318 318 318 318 318 316 318 319 318 319
325 326 325 326 327 327 326 325 326 327 326 325 325 324 323 323 323 324 324 325 324 325 325 325 325 326 325 325 325 325 324 324 323 324 323 322 323 323 322 321 320 320 320 321 321 321 320 320 319 317 317 318 318 316 315 314 314 315 315 315 316 316 316 316 318 318 318 319 318 317 317 316 317 316 317 318 317 318 318 318 318 318 318 318 318
323 325 325 325 326 327 326 326 326 326 327 326 326 325 325 325 324 324 325 325 325 323 324 325 326 326 326 325 325 325 325 324 323 324 324 324 323 323 322 321 320 320 321 321 320 318 319 319 318 317 316 317 318 317 315 315 313 313 312 312 312 314 316 315 316 317 317 318 318 317 317 316 316 317 317 317 317 317 318 318 318 318 318 318 318
324 324 325 325 325 326 327 327 327 326 327 327 326 325 326 326 326 325 326 325 327 326 326 326 326 326 326 326 325 325 325 325 324 323 324 324 324 323 322 321 321 320 319 319 319 319 319 319 318 318 317 314 316 316 315 317 314 306 310 311 311 308 308 305 305 309 313 315 314 315 316 315 316 316 316 316 316 317 317 318 317 317 317 317 317
322 323 324 324 325 325 326 327 327 327 327 327 325 327 327 327 327 326 323 326 324 325 326 325 325 325 325 326 326 326 325 325 325 324 324 324 324 323 323 321 321 321 320 320 319 319 319 319 318 318 318 316 315 313 315 316 316 311 307 310 308 306 306 303 306 312 307 309 311 312 312 314 312 312 311 315 316 315 315 315 315 316 316 316 316
322 323 324 324 325 325 326 327 327 327 327 326 326 327 326 324 325 321 320 320 320 320 321 324 325 325 325 325 326 326 326 325 325 324 323 324 324 324 323 322 321 321 320 320 320 320 320 320 319 318 317 317 316 312 311 315 315 317 314 304 305 304 306 304 308 305 303 309 308 307 308 310 310 312 310 312 312 313 314 313 314 314 314 315 316
321 323 324 325 325 325 326 326 327 327 327 327 327 326 326 325 324 323 322 322 322 321 321 323 324 324 324 327 326 326 326 325 325 325 324 323 324 324 323 322 321 321 321 321 320 320 320 320 320 319 318 318 318 314 312 310 315 315 317 318 312 305 301 304 309 302 305 307 308 306 308 309 307 308 309 311 312 315 314 314 314 314 315 316 317
320 322 323 324 325 326 325 326 326 327 328 327 327 325 326 325 325 324 324 323 322 323 325 325 325 326 326 325 326 327 326 326 325 325 324 323 323 323 323 322 322 322 320 321 320 320 321 320 320 319 319 318 316 315 315 313 311 315 316 316 316 314 311 311 309 306 309 308 309 311 316 312 313 312 314 315 314 314 315 314 314 315 316 316 316
320 320 321 322 323 324 325 325 326 325 327 327 327 326 325 325 325 325 324 324 323 323 324 325 325 324 324 325 325 326 326 326 326 325 325 324 323 323 323 323 322 322 321 321 321 321 321 320 319 320 319 319 318 317 316 315 315 314 316 316 316 317 316 316 316 314 312 309 312 312 310 312 312 314 316 315 315 314 314 314 314 315 317 317 317
320 320 320 321 322 323 323 324 325 325 326 326 326 326 325 325 325 325 324 324 325 325 325 323 323 323 323 324 324 325 325 326 326 326 325 325 322 323 323 323 323 322 320 321 322 321 321 320 318 318 319 318 319 318 318 318 317 317 312 311 312 316 317 317 317 316 313 310 311 312 312 308 310 313 314 314 315 314 315 317 318 316 316 317 318
320 321 321 321 321 321 322 322 324 325 325 326 325 326 325 324 324 324 323 324 324 324 324 323 322 323 323 323 324 324 325 325 326 326 326 325 325 323 323 323 323 323 320 321 321 321 321 320 320 320 320 319 320 319 319 320 319 318 318 316 314 314 315 316 316 316 315 315 311 312 314 314 312 309 312 313 313 313 315 316 315 315 315 315 316
316 318 318 319 320 320 321 321 322 324 324 324 325 325 325 325 324 324 324 323 324 323 322 322 321 321 322 323 323 324 325 325 325 325 326 326 325 324 324 324 324 323 321 322 322 322 321 321 321 321 320 320 320 320 318 319 319 319 319 319 317 317 316 314 314 315 314 311 311 311 313 314 312 313 311 308 310 313 314 313 315 316 315 315 315
Wind_Speed
10 12 10 14 16 15 15 15 15 15 15 14 14 14 13 13 13 12 12 12 12 11 12 12 12 11 12 12 11 11 13 12 13 12 13 14 14 13 12 12 13 12 12 11 11 11 12 15 13 12 12 12 13 13 13 13 13 14 13 12 10 11 11 12 12 11 10 10 11 11 11 10 10 11 11 12 11 11 9 10 6 3 4 8 11
14 12 9 11 16 15 16 16 16 15 15 15 14 14 14 13 12 13 12 12 12 11 12 12 11 11 11 11 9 9 12 13 13 13 13 13 13 13 12 11 11 11 11 11 10 10 9 8 10 14 13 11 11 12 11 11 13 12 12 11 11 12 12 12 12 13 12 12 11 11 11 10 10 11 10 12 10 10 8 10 8 4 2 10 11
11 11 10 11 16 15 16 17 16 16 15 15 14 14 14 12 12 12 13 12 12 11 11 12 11 11 10 10 10 8 11 14 12 11 12 13 12 12 12 11 10 10 9 10 10 10 7 8 8 7 8 9 10 10 10 11 11 11 10 10 10 11 11 11 12 13 12 11 11 11 9 11 10 10 10 10 10 9 6 8 5 5 5 9 9
12 10 9 12 16 15 16 17 17 16 16 15 14 13 13 13 12 12 12 12 12 11 11 12 12 11 10 10 10 9 8 8 10 11 13 11 10 10 10 9 10 9 10 11 11 10 8 8 8 8 7 8 8 9 9 10 9 9 9 10 10 10 11 12 11 11 11 9 7 6 4 4 4 8 9 8 10 9 6 9 9 8 8 9 9
12 9 9 10 11 14 15 16 17 17 16 15 14 13 12 12 12 12 12 11 12 12 11 12 12 12 11 10 10 9 9 7 7 7 7 11 10 10 9 10 10 10 10 10 10 10 9 8 8 7 8 8 8 8 9 9 8 7 8 9 9 8 8 7 6 6 6 7 4 3 3 4 3 6 6 8 8 6 5 6 7 6 6 6 7
11 9 9 9 9 11 15 16 17 17 16 16 14 13 12 12 12 11 12 12 11 12 12 11 12 12 11 11 10 10 8 8 7 6 9 8 9 8 11 11 10 10 10 9 9 9 9 8 7 8 8 8 8 8 8 9 7 5 6 8 7 7 7 7 8 7 7 7 2 1 1 2 1 2 6 6 6 2 4 3 5 7 7 6 5
13 9 9 9 8 10 15 15 16 16 16 16 14 13 12 11 12 12 12 12 10 11 12 12 12 12 12 11 11 11 8 8 10 9 9 9 10 9 10 11 11 10 9 10 10 10 10 10 9 8 8 8 7 8 7 8 7 4 5 7 7 6 6 6 7 6 6 4 2 0 0 2 1 0 5 5 4 4 4 2 2 4 4 4 4
11 9 8 8 8 11 15 15 15 17 16 15 15 14 13 11 11 11 11 11 11 6 11 12 12 12 12 11 11 11 10 9 10 10 11 10 10 10 10 9 9 9 10 10 10 9 9 9 9 9 9 8 7 7 6 6 4 2 3 5 6 6 6 6 6 6 5 2 1 0 2 2 0 1 3 3 1 6 4 4 3 4 4 4 2
10 9 9 8 7 14 14 15 15 17 17 15 14 14 14 12 11 11 11 11 11 8 7 11 12 12 12 12 12 11 11 10 8 10 11 10 9 9 9 10 9 9 9 9 9 9 8 8 8 9 9 8 7 7 6 5 3 1 3 5 5 6 6 7 6 7 4 2 1 1 3 3 1 0 1 3 3 3 4 5 4 4 3 3 2
10 9 8 7 7 13 13 14 14 17 17 16 15 15 14 12 11 11 11 11 11 10 7 10 12 12 12 12 12 12 11 10 10 10 10 10 9 9 8 9 9 8 9 9 9 9 9 8 8 8 8 8 7 6 5 4 3 1 2 4 5 5 6 8 9 6 4 2 2 2 3 4 2 1 2 3 4 3 3 4 3 3 1 2 2
10 9 8 7 8 12 12 12 13 15 17 16 15 14 14 13 8 9 11 11 11 11 9 6 12 12 12 12 12 12 11 11 10 10 10 10 10 9 10 9 9 8 8 9 8 8 8 7 7 7 7 7 7 6 5 4 3 2 2 3 4 5 7 8 7 4 4 3 2 2 4 6 3 2 5 4 4 3 2 2 2 3 4 4 4
9 8 7 7 9 12 11 12 12 14 15 15 15 13 12 12 11 8 11 11 11 12 11 7 11 12 13 13 12 11 11 11 11 10 11 10 9 9 9 9 9 10 7 7 8 7 7 7 6 6 6 6 6 5 4 3 2 1 2 3 4 5 7 7 3 3 4 5 3 0 1 3 3 4 6 4 5 4 4 4 4 5 5 4 5
10 8 7 7 7 11 11 11 10 12 14 14 14 13 12 12 11 9 9 10 11 12 12 10 9 13 13 12 12 11 11 11 11 10 11 10 9 9 9 8 8 9 8 8 7 8 7 6 6 6 6 5 4 3 3 3 1 0 2 3 4 6 5 5 3 3 3 2 2 1 2 1 1 6 5 5 4 5 5 6 6 6 5 5 5
10 9 7 7 6 10 12 11 10 9 12 12 12 11 13 12 11 10 9 9 10 12 12 13 11 12 13 13 12 12 12 11 11 10 10 10 10 9 9 8 8 8 8 8 7 7 7 7 6 5 5 4 4 4 3 2 2 1 2 3 4 5 6 4 4 3 3 3 0 3 3 3 3 8 6 5 5 5 6 6 7 6 7 6 6
11 9 8 8 7 7 11 12 10 9 9 11 11 11 13 13 12 12 10 10 10 11 12 13 12 12 13 13 12 12 12 11 11 10 9 10 10 9 9 9 8 7 7 8 8 7 6 6 6 6 4 5 4 4 3 3 1 1 2 3 4 5 5 3 3 2 4 3 3 1 3 3 7 9 8 8 7 8 8 7 7 8 7 7 8
12 10 9 8 8 7 7 9 11 10 8 9 9 10 12 13 13 12 11 10 10 10 12 12 13 11 12 13 12 12 11 11 10 8 7 8 9 9 9 9 9 7 8 8 7 7 7 7 6 6 5 4 4 4 4 3 3 3 2 3 3 4 4 4 3 3 3 4 4 4 2 3 10 9 9 9 9 10 10 10 9 9 9 9 10
10 10 9 9 8 7 7 6 8 12 9 8 9 10 11 12 12 12 11 10 10 10 12 13 13 12 12 10 11 11 11 11 9 7 7 8 10 9 8 9 9 9 8 7 8 7 7 7 7 7 6 5 5 5 5 5 4 4 3 3 3 3 4 3 3 3 3 3 3 4 5 3 7 11 10 11 11 12 11 11 11 10 10 10 12
10 11 10 9 8 7 7 5 6 7 6 7 8 9 10 11 11 11 10 10 8 8 10 11 13 12 9 8 9 10 10 9 8 8 8 8 8 8 8 8 9 9 9 9 7 7 7 8 7 7 7 7 7 7 6 6 6 5 5 4 5 5 5 4 2 3 3 4 4 3 5 7 9 11 13 13 13 13 13 12 12 12 12 13 13
9 10 9 10 9 7 7 6 5 5 6 6 5 6 9 9 10 9 9 8 7 8 8 9 11 10 12 10 9 9 9 9 9 9 8 8 8 8 9 7 10 10 10 9 9 8 8 7 7 7 8 8 8 8 8 8 7 6 6 6 6 6 6 4 4 4 4 4 5 4 5 9 11 12 14 14 15 15 14 14 13 13 13 13 14
8 8 9 9 9 8 6 7 6 5 4 5 5 4 7 9 10 10 9 8 8 8 8 7 8 9 10 10 9 7 7 7 10 7 9 9 9 8 9 8 10 11 10 10 9 9 9 8 8 8 8 8 9 9 8 7 5 5 7 8 7 8 4 4 4 5 6 6 5 6 7 11 12 13 14 14 14 15 15 15 15 14 14 14 15
5 7 9 8 9 9 8 7 7 6 5 5 5 5 6 8 9 10 9 9 9 7 7 8 8 8 9 9 9 7 5 5 7 6 8 7 8 9 9 9 9 10 11 10 10 10 9 9 9 9 9 10 8 8 7 7 7 7 7 8 9 6 5 5 5 5 5 6 6 6 9 12 13 14 14 15 15 16 16 16 15 15 15 15 15
7 7 6 9 9 8 9 8 7 8 6 5 5 5 4 6 6 6 6 6 8 7 6 5 6 4 7 7 6 6 5 5 5 6 6 6 7 9 9 8 8 9 9 10 10 10 10 10 10 10 11 9 9 6 5 6 8 9 9 10 6 4 5 5 5 5 5 6 6 7 12 13 14 15 15 15 15 15 17 17 17 17 17 17 17
7 7 7 8 9 8 8 9 8 8 8 6 5 6 7 6 6 6 6 7 6 8 5 5 4 5 4 4 5 4 5 5 5 6 6 8 8 10 10 10 9 9 8 9 9 9 10 11 11 10 10 10 7 5 5 5 5 8 8 6 4 5 5 5 5 5 6 6 5 9 13 14 15 16 16 16 16 16 18 18 19 19 19 18 18
9 8 8 7 8 8 9 9 9 9 9 7 6 6 6 6 6 6 5 6 7 7 6 4 4 5 6 5 5 5 5 5 8 12 12 6 6 9 10 10 10 10 10 7 8 8 10 10 10 10 8 5 5 6 5 5 5 5 4 5 5 6 6 6 6 6 7 7 6 11 13 14 15 16 17 18 19 19 19 19 19 19 19 19 19
8 7 7 8 8 8 8 8 9 9 8 8 8 7 6 7 7 8 7 5 5 8 8 7 6 6 6 5 7 6 6 5 6 6 6 6 5 5 5 6 5 6 8 5 5 5 6 5 4 6 4 5 5 5 5 5 5 5 5 5 6 6 6 6 6 6 6 6 7 11 13 13 15 17 18 18 17 18 18 19 19 19 20 21 21
6 8 9 8 9 9 9 8 8 8 9 8 8 7 7 8 9 8 8 7 8 8 9 7 7 7 7 6 6 6 6 6 6 6 6 6 6 6 6 6 6 6 5 5 5 5 5 5 5 5 5 5 5 5 6 6 6 6 5 6 6 6 7 7 6 7 7 6 8 11 12 12 14 16 18 19 19 19 19 19 18 20 20 20 20
8 9 8 7 8 9 9 8 9 8 9 8 7 7 8 7 7 7 8 7 8 9 10 8 7 7 7 7 7 7 6 6 6 7 7 6 7 6 6 6 6 6 6 6 6 6 5 5 5 6 5 5 6 5 6 6 6 6 6 6 6 7 6 7 6 7 7 6 7 11 11 13 14 16 16 17 19 20 20 19 20 20 21 21 21
6 7 8 8 9 10 11 9 9 9 9 8 8 8 7 8 8 8 8 8 8 9 9 8 6 7 7 7 7 6 7 7 7 7 7 6 7 7 6 7 7 6 6 6 6 6 6 6 6 6 6 6 7 6 6 6 7 7 7 7 7 6 6 7 7 7 7 7 6 9 11 11 13 13 14 15 18 19 20 20 20 21 22 21 21
9 8 8 8 10 9 10 11 10 11 9 9 9 8 8 8 8 8 9 8 8 8 8 7 7 7 7 8 7 7 7 7 7 7 6 7 7 7 7 7 7 7 6 7 6 7 7 7 7 7 7 7 6 7 6 7 6 6 7 7 7 7 6 6 6 7 6 6 6 8 12 13 12 13 16 17 19 21 22 23 23 22 22 22 22
11 9 8 9 9 9 10 11 11 11 10 9 8 8 9 9 9 9 8 8 8 7 7 7 7 7 7 8 8 8 8 7 7 6 7 7 7 7 7 7 8 8 7 8 7 7 8 7 7 7 7 7 7 7 6 7 7 7 6 7 7 7 6 6 6 7 7 6 7 7 11 12 13 13 15 16 17 18 19 20 20 20 21 20 21
9 9 9 9 8 9 11 10 9 9 9 10 9 9 8 9 9 8 8 9 8 7 7 7 8 8 8 8 8 8 7 7 7 7 6 7 7 7 7 6 7 8 8 8 7 8 7 7 7 7 7 6 7 6 6 7 7 7 6 6 7 6 6 6 6 6 6 7 6 6 8 12 13 14 13 15 17 18 19 19 20 20 21 20 20
11 12 10 7 8 11 12 11 11 10 10 11 9 9 10 10 8 7 8 8 8 8 8 8 8 8 8 8 8 8 7 7 7 7 7 7 7 7 7 7 8 7 7 7 7 7 7 7 7 7 6 6 7 6 6 7 7 7 6 6 6 6 6 6 6 6 7 7 7 7 7 8 12 14 14 14 16 17 18 19 20 21 20 20 21
11 13 12 9 11 11 11 11 10 9 11 12 11 10 9 8 8 9 8 7 8 8 8 9 8 7 7 8 8 8 7 8 7 8 7 7 7 7 7 7 7 7 7 7 7 6 6 6 6 5 5 5 6 6 5 6 7 6 6 7 6 6 6 6 6 6 7 7 7 7 7 7 7 10 13 15 15 16 18 18 19 19 20 21 21
11 9 10 12 12 8 9 9 10 12 12 11 10 9 9 8 8 8 7 7 7 8 8 7 7 7 7 7 8 8 8 7 7 7 7 7 7 7 8 7 6 6 6 6 7 6 6 6 7 6 6 6 7 7 6 7 7 6 6 6 6 7 6 6 6 6 6 7 7 7 7 7 7 7 7 11 14 14 16 17 18 19 19 19 20
9 8 13 16 13 11 9 9 11 12 11 12 11 11 8 8 8 7 7 8 7 8 7 7 7 7 7 7 7 7 8 8 7 7 7 7 7 8 8 8 6 6 6 6 6 6 6 7 6 7 6 6 6 6 7 8 7 8 7 6 7 6 5 7 6 6 7 7 7 7 7 7 6 6 7 6 8 12 13 15 17 19 18 18 19
13 13 13 11 12 12 12 12 11 13 12 12 11 10 9 8 7 7 7 7 7 8 7 8 7 6 7 7 8 8 7 8 8 8 8 7 8 8 8 6 5 5 6 6 6 7 6 7 6 6 7 7 6 8 5 8 7 8 6 6 6 6 6 6 7 7 7 7 7 7 7 7 7 7 6 6 6 7 13 13 15 16 15 16 17
14 13 13 12 12 13 13 14 14 14 13 12 11 9 9 8 8 8 8 7 8 8 8 7 7 7 7 8 8 8 8 8 8 8 8 8 8 8 7 6 5 6 6 6 7 7 6 7 7 6 6 8 7 8 7 6 7 7 6 7 7 7 7 7 7 7 7 8 8 7 7 7 7 7 6 6 6 6 9 12 12 13 13 13 13
13 14 14 15 15 14 13 14 12 13 12 12 12 10 9 8 7 7 7 9 9 8 7 7 8 8 8 9 8 8 8 9 9 9 8 8 8 8 7 6 6 6 6 6 8 6 6 7 8 6 7 7 8 8 9 6 6 7 7 8 8 7 7 7 7 7 7 8 8 8 7 6 6 6 6 6 6 6 6 7 10 11 12 12 12
12 13 12 13 11 11 11 12 12 12 11 11 10 8 7 6 6 7 7 8 8 8 7 8 8 8 10 10 9 9 9 10 10 9 9 9 8 8 8 6 6 6 7 7 7 7 6 6 8 8 5 7 8 8 7 6 6 7 8 8 7 8 7 7 7 7 7 8 8 8 5 6 5 5 6 6 6 5 5 5 5 6 7 11 12
12 12 13 12 12 11 10 10 11 11 9 8 7 7 7 8 9 6 7 10 9 8 8 10 9 10 10 10 10 10 9 10 10 9 9 9 9 9 9 7 7 7 8 8 8 7 8 8 8 8 7 6 6 6 4 5 6 7 9 8 7 7 8 7 8 8 8 7 7 6 7 5 5 5 5 6 5 5 5 5 5 6 6 8 12
11 12 13 13 14 14 12 14 12 10 10 10 9 10 10 8 7 11 13 10 10 10 10 10 9 10 10 11 11 10 9 10 9 9 10 10 10 9 8 8 7 8 9 11 9 9 8 7 7 6 8 9 8 5 4 3 5 8 6 8 8 6 9 9 10 9 8 7 6 6 6 5 5 5 6 5 4 5 5 6 6 6 6 6 8
12 12 14 16 15 13 14 14 10 11 12 13 12 11 11 12 12 13 12 10 10 10 12 11 12 10 10 10 10 9 10 10 10 10 10 10 10 9 9 9 9 9 10 9 8 8 7 7 6 6 5 9 9 5 5 5 5 6 7 7 6 5 8 6 6 6 6 6 6 6 5 4 5 5 5 4 5 5 5 6 6 6 6 6 6
15 15 16 13 12 13 14 13 12 13 13 13 11 13 12 11 11 10 10 8 8 9 8 8 7 9 10 10 10 10 11 11 11 11 11 11 11 10 10 8 9 8 8 9 8 9 8 9 8 9 7 5 7 3 6 9 6 2 1 3 8 7 5 4 3 3 5 4 3 4 4 4 5 4 4 4 5 5 5 5 5 6 6 6 6
10 11 11 12 11 12 13 13 13 13 12 13 14 14 12 10 9 5 4 7 6 5 7 6 7 9 11 10 10 11 12 12 12 12 11 10 11 11 9 8 9 8 9 9 9 10 9 8 8 9 8 9 6 5 5 7 7 4 4 5 2 1 7 2 3 6 3 3 2 3 3 3 3 3 2 4 5 5 5 5 5 6 6 6 6
10 11 12 12 11 15 16 15 13 13 12 13 14 11 7 5 6 3 1 3 2 3 5 9 10 10 9 10 14 12 12 12 11 12 12 12 11 10 10 9 9 8 8 9 9 10 9 9 9 9 10 10 9 4 3 6 8 7 6 1 2 1 5 3 4 4 3 2 3 3 1 1 3 4 3 4 3 4 5 5 6 5 6 7 6
10 11 11 14 14 14 13 12 10 10 11 12 13 9 9 10 8 9 10 9 9 9 12 15 12 12 15 11 7 10 12 11 11 11 12 10 11 11 10 9 9 8 9 9 9 8 9 10 10 9 10 9 9 6 6 3 7 8 9 9 6 4 1 2 3 4 4 2 3 1 0 1 1 3 3 4 5 6 5 5 5 6 6 6 5
12 11 9 10 11 11 11 12 11 11 11 10 10 9 9 9 12 13 13 12 12 11 12 9 8 9 7 8 10 8 10 12 11 10 10 11 10 10 10 10 9 9 9 9 10 11 10 9 7 8 9 7 7 10 10 5 2 6 6 8 8 6 2 3 5 2 7 1 1 2 5 4 5 4 6 6 6 6 6 5 5 6 6 6 5
13 9 8 7 10 12 10 11 10 10 10 9 10 12 12 11 11 12 11 11 12 14 12 11 7 5 7 9 8 8 9 10 11 11 11 11 10 10 10 9 10 10 8 10 11 10 7 7 8 9 8 8 9 10 8 6 8 5 6 8 7 6 5 4 5 7 7 9 8 3 2 4 4 5 5 6 7 6 6 6 5 6 6 6 5
11 10 10 10 10 10 9 7 9 10 10 12 12 13 13 12 12 11 11 11 12 12 9 6 7 7 8 8 8 9 9 10 11 11 11 12 11 11 10 10 10 10 9 10 9 8 10 9 8 8 9 8 8 8 7 8 8 8 4 4 4 5 5 6 6 5 7 5 9 8 7 2 2 4 6 6 7 5 5 6 7 6 6 7 5
11 11 10 8 8 7 9 10 12 11 11 11 12 13 14 12 12 12 14 13 11 11 9 9 7 7 10 10 8 8 9 9 11 12 11 11 11 10 11 13 13 11 9 9 9 10 9 9 10 9 9 10 8 9 10 8 7 6 7 5 4 3 3 4 5 5 6 9 11 8 7 7 9 3 4 6 5 5 5 5 6 6 6 5 5
6 7 8 9 9 9 10 11 13 11 10 11 11 13 13 13 13 14 16 16 15 13 11 10 8 7 10 10 10 10 9 9 9 10 11 11 11 12 13 13 11 10 10 11 12 10 9 8 8 9 10 11 9 8 9 8 6 7 7 7 7 7 6 6 6 5 5 4 4 5 6 5 5 8 4 3 4 5 5 5 6 6 5 4 4
Wind_Direction
179 158 165 168 167 162 153 155 155 155 153 150 145 141 140 140 137 135 137 135 133 129 124 122 118 117 115 115 114 108 114 111 115 112 111 113 116 120 119 107 97 91 89 90 86 85 89 101 101 101 99 92 89 96 92 92 92 88 87 85 88 94 92 87 82 78 83 86 84 85 86 84 79 88 91 90 87 84 77 75 59 50 55 79 80
165 159 162 166 167 160 155 157 157 157 155 152 150 146 144 143 142 139 139 139 137 132 131 130 120 114 112 113 110 114 111 112 115 119 119 121 111 97 100 101 96 97 93 91 94 88 96 96 113 110 102 99 99 93 91 92 89 90 88 88 89 88 90 86 83 81 81 75 72 77 79 77 79 84 93 91 90 89 87 89 83 66 65 82 77
143 154 158 165 164 158 157 158 158 157 156 155 153 149 145 146 145 143 141 141 141 138 138 135 124 120 121 121 113 105 118 122 123 121 118 106 101 96 88 90 93 89 93 88 89 98 112 110 99 92 91 95 94 97 93 90 92 91 98 102 101 97 92 88 86 83 78 80 82 74 69 77 79 82 85 88 92 98 114 99 99 94 94 89 78
146 156 156 164 162 157 158 159 159 158 158 156 153 149 149 150 149 145 142 143 143 142 144 139 130 126 130 129 122 121 110 120 131 130 106 100 104 106 105 112 105 103 95 97 98 95 101 101 95 99 103 101 106 101 101 98 98 96 95 95 93 93 95 93 90 92 83 65 62 75 69 57 49 77 86 92 89 83 62 83 79 72 75 86 88
149 153 157 159 159 156 158 160 159 158 159 157 155 153 154 155 153 148 143 145 144 145 146 142 136 132 138 132 125 125 127 114 115 111 125 119 113 100 112 107 103 98 100 104 101 101 99 107 116 110 103 104 106 108 113 111 101 96 96 92 92 89 81 70 74 65 32 17 17 76 107 95 80 86 85 86 84 71 73 79 80 82 70 64 77
150 155 157 155 155 157 158 161 158 159 161 156 154 155 161 158 154 151 148 149 150 145 147 145 140 137 139 134 133 134 131 130 125 112 106 108 118 122 116 114 111 113 111 114 109 107 110 108 114 112 113 113 113 115 116 121 111 101 91 84 80 77 64 50 31 23 11 355 32 71 16 91 82 96 106 101 94 91 77 80 93 95 82 76 67
151 156 157 155 155 159 162 159 157 160 161 158 152 156 161 162 160 157 153 150 149 147 148 149 146 144 141 136 137 138 132 134 133 130 119 128 129 121 114 116 116 116 119 116 116 115 119 119 114 118 121 120 120 121 124 126 126 100 76 77 73 63 50 42 29 15 5 19 73 157 282 102 60 18 115 110 130 145 119 92 79 76 79 88 80
149 153 155 155 157 164 164 157 159 161 160 161 161 157 160 166 165 160 156 157 151 147 154 150 149 148 143 139 141 141 138 129 131 135 133 131 130 126 119 112 116 115 109 112 113 112 120 125 128 128 124 122 123 117 114 125 124 79 36 49 52 45 41 32 24 10 11 24 51 116 236 101 6 319 128 136 118 70 76 98 95 81 71 102 77
152 153 150 152 162 163 162 155 163 162 160 159 164 163 166 162 165 163 161 156 153 157 152 154 152 150 149 147 147 146 144 141 140 133 128 128 127 122 128 132 126 125 124 124 120 119 117 119 117 119 115 121 123 122 121 126 118 87 22 33 35 33 29 19 16 20 3 4 197 185 242 130 156 328 199 128 92 93 84 60 64 93 89 126 131
152 150 149 150 159 158 157 161 167 162 163 163 167 170 168 162 161 164 157 162 158 158 168 164 154 154 155 153 152 151 153 150 141 140 135 136 139 140 134 127 131 133 126 125 124 120 125 128 128 125 125 124 120 124 128 127 128 90 29 30 22 20 22 20 23 11 1 326 155 190 221 164 140 237 234 133 129 116 88 107 109 109 235 154 200
152 151 150 148 155 155 159 167 167 162 167 165 166 172 175 158 160 162 161 158 158 165 173 184 162 161 158 159 158 157 156 152 150 150 149 147 147 149 150 148 143 142 141 141 128 135 128 123 125 129 130 131 127 128 129 128 128 109 51 29 20 11 26 24 29 9 360 1 43 273 218 152 159 207 252 176 158 140 137 164 185 189 219 218 220
153 151 154 150 154 154 160 168 163 159 169 170 169 169 173 171 169 173 162 158 164 168 172 181 172 165 164 164 163 162 156 156 159 159 157 156 157 155 152 150 150 148 148 141 135 135 136 136 130 134 135 131 141 141 134 132 122 83 50 31 5 7 27 28 34 13 14 9 334 283 202 153 181 221 217 190 178 170 180 205 224 228 239 239 238
154 154 155 152 153 158 158 165 172 166 168 176 172 172 172 172 171 178 171 157 171 173 171 185 183 169 168 167 166 165 162 161 165 163 159 160 162 162 161 158 156 153 156 154 155 148 144 142 137 138 138 137 128 135 151 152 133 77 358 6 359 355 16 32 34 18 11 47 316 277 173 231 246 239 215 209 204 209 216 231 245 235 241 246 247
152 155 158 153 154 158 159 162 172 179 171 176 175 172 172 176 174 176 172 183 174 175 171 186 183 179 167 168 170 169 168 169 169 166 165 163 161 165 167 167 166 164 165 165 167 161 156 149 153 150 141 144 145 141 127 180 199 254 325 332 350 350 359 11 21 14 345 338 107 296 269 207 210 239 234 227 224 234 236 248 254 248 242 245 247
151 156 156 152 156 159 161 164 165 177 173 179 179 173 173 178 180 179 180 193 179 181 177 177 185 187 174 170 171 172 172 173 173 172 169 165 166 167 169 171 172 176 175 177 176 171 170 167 162 160 163 156 156 159 165 172 197 217 293 323 332 346 350 353 349 349 335 327 321 329 293 268 219 227 234 235 237 238 250 242 253 256 243 243 249
147 152 150 153 155 158 162 167 162 166 175 185 177 172 175 182 181 186 186 189 187 181 182 184 185 192 182 172 173 174 175 175 175 170 166 164 168 171 177 175 173 182 186 186 186 181 181 184 178 174 177 194 181 184 179 195 210 222 255 295 320 317 329 338 330 327 327 318 313 313 291 260 255 233 232 237 238 242 261 258 248 249 251 248 248
143 144 147 153 157 157 157 164 162 162 172 185 179 177 180 185 183 186 185 186 192 185 187 186 182 192 186 178 174 176 177 177 172 170 173 177 175 175 183 180 180 186 187 197 195 197 192 197 199 187 192 202 208 205 209 211 213 221 229 254 271 293 305 323 325 308 310 299 293 294 297 278 270 253 243 249 249 251 252 254 252 253 254 252 247
145 147 150 155 158 156 153 154 160 160 171 181 185 187 190 187 185 182 179 178 185 176 181 181 176 197 186 183 183 179 176 175 172 171 179 182 175 172 178 188 185 187 190 194 198 205 207 210 209 205 203 208 216 222 222 226 230 225 209 214 241 257 271 283 280 280 275 265 265 266 282 281 271 263 258 256 256 254 253 254 251 252 253 252 253
148 150 150 155 161 157 152 152 158 162 167 172 180 180 182 189 176 176 172 175 171 166 172 177 184 184 184 185 191 182 178 176 174 178 179 181 177 174 181 191 191 192 197 200 201 203 206 214 219 225 223 222 222 227 232 233 230 223 209 217 226 239 247 256 265 267 270 273 263 263 264 272 278 275 268 262 256 255 255 254 256 255 256 259 261
151 152 157 163 159 160 156 155 160 170 171 167 175 177 182 179 173 171 174 169 157 151 160 167 178 181 181 185 185 185 181 179 178 185 188 187 186 183 190 190 197 196 201 203 206 210 212 213 215 224 229 230 234 236 237 245 251 241 224 222 227 234 248 257 260 268 268 270 271 267 266 274 277 280 279 272 263 257 257 259 261 260 259 259 261
154 163 162 166 164 162 164 160 167 171 175 172 174 174 189 174 170 176 175 166 155 151 158 164 167 175 177 181 185 184 183 181 186 190 197 197 196 193 198 196 201 202 201 203 206 210 217 218 220 222 228 232 233 239 242 236 240 242 231 228 231 237 240 250 254 263 269 266 272 273 272 273 277 279 280 275 270 263 261 262 265 267 265 264 264
168 170 180 167 166 170 171 169 168 174 177 178 179 177 178 178 164 174 177 170 150 161 160 164 168 169 173 177 184 188 188 185 191 193 197 204 204 202 206 216 215 208 203 206 209 213 218 222 223 226 229 231 231 228 238 242 238 237 238 235 234 234 243 241 250 259 264 265 262 263 268 271 274 277 276 276 273 268 265 265 267 270 271 270 270
177 178 181 179 171 173 176 176 176 176 178 185 180 181 189 182 175 179 177 172 174 183 182 174 175 169 189 190 186 193 193 192 193 199 202 203 205 207 209 212 221 224 216 211 211 213 216 220 223 224 226 229 229 224 228 236 247 252 252 251 241 239 241 240 241 249 257 259 262 263 265 268 271 273 273 274 276 276 272 270 270 272 273 273 272
177 181 176 184 174 175 182 184 181 179 179 189 182 185 189 185 185 190 180 176 176 186 195 198 186 178 189 205 197 201 197 196 209 214 214 206 216 214 215 216 218 222 222 221 222 222 222 225 225 225 227 229 223 223 225 232 238 242 246 242 242 244 244 244 240 251 256 260 257 260 265 266 266 267 269 273 274 274 277 279 276 276 275 275 274
176 169 173 181 178 179 182 188 186 180 184 189 188 186 187 188 193 194 187 189 190 188 190 202 205 196 191 196 206 203 204 204 209 212 210 203 205 213 218 220 218 223 224 223 224 231 231 232 245 246 238 229 227 228 224 235 237 236 235 235 237 241 245 244 242 248 251 252 253 253 259 264 267 268 271 277 279 279 275 273 276 278 279 278 278
170 178 184 176 179 182 184 186 186 185 186 190 192 185 177 194 194 194 191 196 202 199 197 193 200 203 199 200 201 207 210 211 213 215 211 205 206 208 211 210 214 221 212 222 224 223 229 228 227 235 238 230 229 229 226 227 239 239 238 236 238 240 240 244 243 240 246 250 249 245 249 255 262 268 273 277 279 281 279 276 274 275 276 277 277
190 192 179 177 177 181 187 185 184 187 192 190 189 183 188 190 191 192 193 203 202 199 201 199 200 196 197 196 197 204 208 210 213 214 216 209 212 208 208 204 211 214 210 213 220 221 224 225 226 230 234 234 238 237 235 233 234 243 242 241 240 243 245 244 241 243 243 246 249 247 247 250 254 259 265 270 274 278 281 282 282 283 283 281 281
190 195 192 187 178 181 182 184 189 184 192 190 189 190 190 189 193 192 198 197 193 204 206 206 199 202 198 199 201 203 204 208 213 212 213 211 216 208 206 208 207 213 212 208 214 220 224 226 227 231 232 233 237 238 238 237 238 235 244 243 243 244 243 243 238 239 240 241 241 245 245 245 249 252 257 262 269 272 275 276 278 280 281 282 283
197 200 198 195 197 179 174 185 189 190 189 184 191 193 190 191 191 195 200 194 200 201 202 201 206 205 205 203 199 207 208 208 209 211 204 213 211 207 205 209 193 211 210 201 210 216 222 225 225 228 228 233 234 238 237 240 238 236 236 243 241 241 242 237 234 236 235 237 240 244 241 243 243 248 256 263 267 271 275 278 280 281 283 284 285
203 196 195 205 198 188 183 184 186 190 189 183 191 188 192 191 195 196 196 192 203 198 196 201 204 201 209 208 207 209 211 209 211 208 203 211 208 206 206 205 198 207 208 205 211 215 222 223 225 227 228 231 234 236 234 243 241 238 236 241 239 234 230 231 233 234 238 239 242 245 245 245 247 249 252 259 264 269 272 275 279 281 281 281 282
197 199 202 204 199 193 200 194 184 183 182 191 191 195 188 196 195 193 192 200 195 195 202 202 202 204 207 206 210 212 214 215 212 208 211 210 207 206 210 205 209 209 213 218 213 215 220 220 218 220 224 227 233 232 232 242 244 243 238 236 239 235 237 237 242 247 254 258 262 261 260 256 256 256 256 259 262 266 269 272 275 279 282 282 283
202 208 202 195 196 203 202 201 196 183 185 194 192 194 197 201 194 189 200 200 190 199 202 204 206 206 204 205 207 210 211 218 212 212 210 211 212 211 211 209 215 210 212 216 217 217 219 224 223 222 224 223 232 231 229 235 242 238 234 237 237 238 244 249 256 259 261 260 256 255 253 252 253 255 257 258 261 263 266 267 269 272 276 279 281
209 205 200 191 203 203 203 203 200 194 192 195 194 199 199 197 193 197 197 189 193 197 202 206 206 205 205 206 207 209 210 214 214 215 212 214 216 217 217 217 215 210 214 218 221 221 227 234 239 234 238 236 239 242 235 234 241 244 240 246 246 254 249 252 253 254 254 254 252 251 250 248 248 252 253 255 258 259 262 264 266 267 271 277 280
202 203 195 202 204 202 202 201 200 202 203 200 197 199 200 199 199 199 193 189 194 195 204 202 203 205 204 206 207 211 214 217 212 218 214 219 222 224 224 223 213 209 212 214 221 218 224 226 233 228 236 231 236 239 241 252 250 252 251 254 252 251 250 252 249 249 252 251 249 248 247 244 245 245 249 251 252 254 257 260 262 263 267 271 277
197 196 198 205 197 198 196 205 200 205 205 207 203 204 198 197 199 200 199 199 200 204 202 200 203 207 203 211 208 208 213 215 215 213 216 215 222 229 230 232 215 210 213 214 215 221 218 223 215 225 234 237 242 246 239 249 254 253 252 248 251 253 249 251 254 257 252 253 248 248 244 243 242 240 244 245 250 249 249 251 255 261 263 269 273
198 198 202 199 199 200 196 201 198 204 206 208 209 206 203 199 198 201 201 202 206 211 208 206 206 201 203 212 214 213 209 209 211 211 219 216 221 228 231 224 217 213 222 221 217 226 221 228 220 212 231 244 240 251 234 250 252 258 257 255 255 254 255 257 257 259 254 256 254 253 247 245 243 243 238 240 241 244 246 246 249 254 260 265 272
199 196 196 194 200 201 198 201 200 202 204 207 208 209 204 204 199 199 203 202 210 214 213 208 207 206 206 213 212 214 215 213 212 209 214 219 223 231 230 217 211 214 219 220 222 223 220 228 233 221 219 245 234 250 247 244 257 259 261 259 258 257 259 260 262 260 265 259 260 255 251 246 241 239 236 238 241 246 248 247 251 256 260 265 272
201 197 196 193 197 196 198 200 202 201 202 202 204 204 206 205 206 205 203 209 215 215 213 203 211 211 211 218 211 212 215 217 218 216 217 223 224 226 226 214 208 215 223 223 229 220 223 221 240 228 221 233 246 244 252 250 253 263 263 261 265 257 260 260 256 258 255 262 258 255 250 250 246 240 239 240 242 245 245 250 254 258 263 265 267
204 198 197 199 197 198 198 201 200 199 202 200 200 202 201 208 213 211 214 220 220 218 211 213 214 211 216 215 213 215 213 214 217 216 219 222 226 228 227 215 203 211 218 225 232 228 226 225 233 243 224 230 240 241 246 249 259 264 266 266 265 261 259 255 257 255 251 251 257 259 257 251 242 244 244 240 243 241 248 254 259 261 263 264 265
204 198 197 197 199 197 195 199 203 198 194 194 187 195 193 202 208 215 230 224 218 215 215 219 212 217 217 213 215 216 213 213 214 213 217 220 223 225 226 212 207 206 217 225 228 219 221 224 233 234 240 245 240 250 247 252 269 267 270 276 262 267 263 250 252 251 252 252 255 255 254 255 244 251 243 242 241 243 247 251 252 255 259 265 263
208 202 197 199 198 195 188 201 199 190 188 190 193 192 197 203 211 212 219 213 215 214 220 221 219 221 215 214 214 215 214 214 214 209 215 219 223 223 220 217 208 211 219 228 226 226 220 219 229 215 231 246 251 219 228 196 268 279 265 273 278 250 260 252 250 253 252 255 251 253 255 255 253 250 248 244 245 247 249 255 255 254 256 256 266
212 206 205 204 199 194 197 203 188 194 197 195 194 196 200 199 198 208 210 208 209 209 222 217 218 219 217 216 215 213 212 214 212 212 216 215 219 219 217 216 208 217 223 230 229 228 224 222 218 244 213 231 250 193 202 139 241 244 299 305 288 272 255 268 269 272 270 265 258 259 266 254 263 251 257 252 256 254 254 254 255 257 259 258 260
204 203 210 206 199 200 208 200 195 196 201 198 192 203 204 204 201 210 202 214 218 220 228 226 220 222 219 217 215 214 212 215 211 211 215 217 219 217 219 213 213 212 221 228 228 229 221 222 213 224 239 233 246 209 189 182 233 143 182 324 303 348 336 350 336 292 269 271 289 271 260 259 255 256 257 260 265 264 262 260 258 255 259 257 256
209 208 211 208 207 209 210 204 204 202 201 201 203 209 205 205 211 213 209 210 208 216 225 223 219 218 224 214 216 214 211 215 210 211 216 218 215 218 216 212 216 208 215 223 223 229 222 224 218 223 220 248 224 241 190 193 193 129 284 219 249 94 316 326 328 296 302 288 296 267 255 254 277 297 286 264 266 265 264 259 256 253 252 254 253
213 212 205 202 206 209 210 205 205 204 205 203 205 203 187 195 204 197 140 222 251 207 210 231 221 218 222 214 219 207 211 215 212 212 212 217 215 217 214 216 213 210 211 223 225 225 222 220 216 218 211 225 245 225 239 195 203 200 183 99 324 320 238 266 327 286 346 20 327 332 333 290 294 285 279 271 264 264 265 270 259 258 255 255 257
220 221 213 210 205 209 210 207 206 207 208 207 203 189 194 195 185 195 209 212 219 209 215 221 211 209 216 219 216 208 211 215 214 214 214 215 217 215 215 214 214 211 211 219 225 224 223 218 214 213 221 219 231 234 240 223 209 208 217 223 186 217 215 235 13 293 316 247 274 298 293 301 273 292 289 275 274 268 241 248 251 252 252 249 255
221 217 215 217 219 220 210 202 203 206 206 205 190 189 197 201 202 206 211 211 217 227 229 234 222 223 223 217 216 208 211 214 217 215 215 214 217 215 214 215 215 213 209 213 221 222 220 217 204 206 218 204 200 233 234 207 213 238 226 231 239 246 196 287 264 312 301 313 285 270 299 273 267 260 275 272 266 269 275 265 272 271 274 279 275
217 211 211 213 215 217 208 207 205 205 203 198 189 192 200 203 206 213 217 219 219 231 226 229 224 217 213 222 212 213 210 212 215 215 216 213 213 217 213 214 216 216 207 214 222 222 218 214 199 205 206 203 203 220 231 196 206 224 202 221 237 245 239 226 238 252 271 292 288 277 260 263 252 258 257 269 275 270 280 289 274 274 273 273 268
212 203 204 208 212 213 211 208 211 209 208 197 196 197 202 203 206 211 219 226 230 238 240 228 221 213 222 219 214 215 212 213 214 214 213 213 209 213 210 213 216 217 210 220 225 218 214 207 198 198 206 209 209 217 220 220 207 222 165 225 218 231 229 224 235 227 249 286 286 283 287 296 272 255 257 256 258 270 266 270 276 276 280 281 292
210 204 204 202 205 205 209 206 211 210 210 204 201 201 202 203 206 209 215 225 227 239 238 231 222 210 223 222 218 216 213 214 215 215 214 212 209 206 210 212 214 213 209 220 223 219 215 210 205 201 203 209 209 209 216 221 212 210 203 190 201 213 228 232 219 230 239 235 259 268 289 296 293 267 239 251 271 276 268 268 276 276 276 283 308
237 215 204 200 201 202 209 211 216 214 211 209 202 207 205 206 211 212 215 219 221 223 228 233 225 220 222 221 216 217 213 217 212 217 214 210 211 209 213 214 211 205 209 214 218 214 213 209 206 208 209 209 211 211 219 223 217 209 206 203 211 206 212 217 219 209 226 257 273 267 262 250 259 300 251 258 269 262 267 280 271 279 282 321 312